Location: Mahannah Oil Field
(37.4664°N, 96.6003°W)
Time: 03:19:41
(UTC+00:00)

X-37B - Pass Details

Date: 01 December 2020
Orbit: 383 x 391 km, 45.1° (Epoch: 22 January)

Event Time Altitude Azimuth Distance (km) Brightness Sun altitude
Rises 00:24:48 0° 272° (W) 2,255 5.9 -14.9°
Reaches altitude 10° 00:27:03 10° 285° (WNW) 1,405 4.3 -15.3°
Maximum altitude 00:29:49 27° 346° (NNW) 778 2.1 -15.8°
Enters shadow 00:30:43 23° 15° (NNE) 865 2.0 -16.0°
